EETNULOO

Guest
Details From EETN - TALLINN
To ULOO - PSKOV
Flight Number -
Tags generated
Created
Modified
Stats Distance 155 nm / 287 km
Max Altitude 9,000 ft / 2,743 m
Waypoints 3
Social Downloads 1
Likes 0
Share VATSIM

Download

Looking for another format? Having issues loading an existing format? Contact us
Advertisement - Login to hide

Notes

Basic altitude profile: - Ascent Rate: 2500ft/min - Ascent Speed: 250kts - Cruise Altitude: 35000ft - Cruise Speed: 420kts - Descent Rate: 1500ft/min - Descent Speed: 250kts Options: - Use NATs: yes - Use PACOTS: yes - Use low airways: no - Use high airways: no

Route

EETN 5900N02500E ULOO

ID Type Via Altitude Latitude Longitude Leg Dist Tot Dist Heading (true) Name
O EETN APT - 0 ft / 0 m 59.41326˚ 24.83280˚ - 0 nm - TALLINN
5900N02500E LATLON - 9,000 ft / 2,743 m 59.00000˚ 25.00000˚ 25 nm 25 nm 168° / 168° -
O ULOO APT - 0 ft / 0 m 57.78387˚ 28.39647˚ 129 nm 154 nm 123° / 126° PSKOV

Altitude Profile

Advertisement - Login to hide

EETN

Details ICAO EETN (TLL)
Name TALLINN
Region Estonia
Timezone Europe/Tallinn (UTC+2.0)
Stats Elevation 131 ft / 40 m (AMSL)
Location 59.413257° 24.832803°
Runways 1
Magnetic Variation 8.636° E

METAR

EETN 150620Z 13006KT 100V160 0900 R08/P2000N +SN VV004 00/M00 Q0990 R08/590295 NOSIG

Decode

TAF

TAF TAF EETN 150530Z 1506/1606 15014KT 6000 -SN BKN012 TEMPO 1506/1513 1500 +SHSNRA BR BKN003 SCT015CB TEMPO 1513/1518 4000 BR BECMG 1513/1515 BKN007 TEMPO 1515/1518 BKN004 TEMPO 1518/1602 2000 RASN BR BKN003

Decode

Departure Runways

ID Width Length Bearing (true) Bearing (mag) Surface Threshold Offset Overrun Length
08 148 ft / 45 m 10,023 ft / 3,055 m 90.24° 81.60° Asphalt 820 ft / 250 m 0 ft / 0 m
26 148 ft / 45 m 10,023 ft / 3,055 m 270.28° 261.64° Asphalt 0 ft / 0 m 184 ft / 56 m

ULOO

Details ICAO ULOO (PKV)
Name PSKOV
Region Russia
Timezone Europe/Moscow (UTC+3.0)
Stats Elevation 154 ft / 47 m (AMSL)
Location 57.783872° 28.396468°
Runways 2
Magnetic Variation 9.332° E

METAR

ULOO 150630Z 17005MPS 130V200 P5000 -RASN BKN010 OVC015 01/01 Q0994 R19/590139 NOSIG RMK QFE741

Decode

TAF

Not found

Destination Runways

ID Width Length Bearing (true) Bearing (mag) Surface Threshold Offset Overrun Length
01 144 ft / 44 m 6,551 ft / 1,997 m 17.98° 8.65° Concrete 0 ft / 0 m 885 ft / 270 m
01R 144 ft / 44 m 5,656 ft / 1,724 m 18.38° 9.05° Dirt 0 ft / 0 m 0 ft / 0 m
19 144 ft / 44 m 6,551 ft / 1,997 m 197.99° 188.66° Concrete 0 ft / 0 m 150 ft / 46 m
19L 144 ft / 44 m 5,656 ft / 1,724 m 198.38° 189.05° Dirt 0 ft / 0 m 0 ft / 0 m

Popular Alternatives